User: anonymous
Location: Unspecified
(0.0000°N, 0.0000°E)
Time: 15:05:54
(UTC+00:00)
Language:

NAVSTAR 65 (USA 213) - Orbit

View from above orbital plane
View from above orbital plane
View from above satellite
View from above satellite

Ground track
Ground track

The orbit data is extracted from the following two-line orbital elements,

1 36585U 10022A   14292.95833868 -.00000085  00000-0  00000+0 0  7474
2 36585 055.9920 019.0904 0035948 038.0233 229.9858 02.00551914 32195
Epoch (UTC): 19 October 2014 23:00:00
Eccentricity: 0.0035948
inclination: 55.9920°
perigee height: 20087 km
apogee height: 20278 km
right ascension of ascending node: 19.0904°
argument of perigee: 38.0233°
revolutions per day: 2.00551914
mean anomaly at epoch: 229.9858°
orbit number at epoch: 3219

The dashed part of the orbit path shows where the satellite is in the earth's shadow,  

DLR